Simultaneous Nadir Overpasses (SNOs) Predictions

Prediction of SNOs between METOP-B and TERRA Satellite Orbit:

Table of predicted SNOs for the next 14.0 days since TLE Epoch: 11/4/2017
Index Date (METOP-B) Time (METOP-B) Lat,Lon (METOP-B) SZA (METOP-B ) Date (TERRA) Time (TERRA) Lat,Lon (TERRA) SZA (TERRA ) Distance(km) Time Diff (sec)
1 11/05/2017 21:17:30 81.30, -92.23 100.36 11/05/2017 21:18:36 81.29, -92.29 100.38 1.25 66
2 11/05/2017 22:08:09 -81.31, 75.67 79.57 11/05/2017 22:08:02 -81.31, 75.67 79.57 0.44 7
3 11/08/2017 16:51:52 81.30, -25.70 101.19 11/08/2017 16:52:51 81.30, -25.71 101.22 0.13 59
4 11/08/2017 17:42:32 -81.30, 141.82 78.78 11/08/2017 17:42:18 -81.30, 141.90 78.78 1.50 14
5 11/11/2017 12:26:13 81.30, 40.80 101.98 11/11/2017 12:27:05 81.31, 40.83 102.01 0.57 52
6 11/11/2017 13:16:53 -81.31,-151.67 77.99 11/11/2017 13:16:32 -81.31,-151.55 77.99 2.03 21
7 11/14/2017 08:00:35 81.30, 107.28 102.72 11/14/2017 08:01:20 81.31, 107.32 102.75 0.84 45
8 11/14/2017 08:51:15 -81.31, -85.17 77.25 11/14/2017 08:50:47 -81.31, -85.04 77.25 2.24 28
9 11/17/2017 03:34:57 81.31, 173.73 103.41 11/17/2017 03:35:35 81.31, 173.76 103.44 0.68 38




NCC Satellite Simultaneous Nadir Overpasses (SNOs) Prediction Service
